Weather in Bedyk

Russia / The Kabardino-Balkar Republic     43°30′39″N   43°09′14″E
temp.,
°C
wind,
m/s
gust,
m/s
humid.,
%
clouds,
%
prec.,
mm/h
press.,
hPa
HPBL,
m
25 january, mon
mon2500:00+1sw455298 0.0 102040
03:00+1sw445399 0.0 102037
06:00+1sw445299 0.0 102036
09:00+2sw4455100 0.0 102044
12:00+4sw129373 0.0 101870
15:00+4se019645 0.0 101722
18:000sw44540 0.0 101930
21:00−1sw55480 0.0 101845
26 january, tue
tue2600:000sw554835 0.0 101857
03:00+1sw664766 0.0 101871
06:00+1sw5547100 0.0 101958
09:00+3sw4454100 0.0 102038
12:00+4nne129621 0.0 101955
15:00+2ene119145 0.0 101977
18:00−1ssw337465 0.0 102024
21:00−1sw345848 0.0 101930
27 january, wed
wed2700:000sw445729 0.0 101938
03:00+1sw455550 0.0 101747
06:00+1sw455333 0.0 101544
09:00+3sw345967 0.0 101439
12:00+5s1196100 0.0 101123
15:00+5sse1192100 0.0 100922
18:00+3sw4459100 0.0 101035
21:00+3sw5552100 0.0 101073
28 january, thu
thu2800:00+3sw6847100 0.0 100998
03:00+3sw6653100 0.0 100872
06:00+3sw5557100 0.0 100761
09:00+3sw556299 0.0 100773
12:00+6sw128466 0.0 100551
15:00+4nne119660 0.0 100535
18:00−1ese119468 0.0 100622
21:00−1wnw119484 0.0 100721
29 january, fri
fri2900:00−1w1198100 0.0 100724
03:00−1ene1299100 1.9 100887
06:00−3nne2399100 7.1 1009149
09:00−3ene2298100 9.2 1010161
12:00−3ne3397100 2.1 1010292
15:00−4ne3497100 3.8 1010334
18:00−5ne2298100 1.2 1013130
21:00−6wsw1196100 1.9 101421